Location: Shenandoah County Park
(38.9356°N, 78.4524°W)
Time: 07:43:39
(UTC-04:00)

Vanguard 1 - Pass Details

Date: 08 February 2023
Orbit: 648 x 3832 km, 34.3° (Epoch: 01 April)

Event Time Altitude Azimuth Distance (km) Brightness Sun altitude
Exits shadow 05:34:49 27° 249° (WSW) 2,003 11.1 -19.6°
Maximum altitude 05:38:57 66° 175° (S) 1,523 11.0 -18.8°
Drops below altitude 10° 05:51:10 10° 97° (E) 4,928 15.0 -16.4°
Sets 05:56:11 0° 96° (E) 6,455 16.2 -15.5°
